Evergreen, AL

8:37 AM CDT on June 28, 2017 (GMT -0500)
Middleton

Weather History for KGZH - August, 2013

Change the Weather History Date:

Friday, August 16, 2013

  Actual Average (KPRN) Record (KPRN)
Temperature  
Mean Temperature 76 °F -  
Max Temperature 84 °F 91 °F 100 °F (1943)
Min Temperature 71 °F 69 °F 62 °F (1963)
Cooling Degree Days 12    
Growing Degree Days 26 (Base 50)    
Moisture  
Dew Point 70 °F    
Average Humidity 84    
Maximum Humidity 94    
Minimum Humidity 65    
Precipitation  
Precipitation 0.00 in - - ()
Sea Level Pressure  
Sea Level Pressure 30.01 in    
Wind  
Wind Speed 4 mph (NE)    
Max Wind Speed 8 mph    
Max Gust Speed -    
Visibility 8 miles    
Events      
Averages and records for this station are not official NWS values.
T = Trace of Precipitation, MM = Missing Value Source: NWS Daily Summary

Daily Weather History Graph

Daily Weather History Graph

Search for Another Location

Airport or City:

Trip Planner

Search our weather history database for the weather conditions in past years. The results will help you decide how hot, cold, wet, or windy it might be!

Date:

Astronomy

Aug. 16, 2013 Rise Set
Actual Time 6:14 AM CDT 7:29 PM CDT
Civil Twilight 5:48 AM CDT 7:55 PM CDT
Nautical Twilight 5:18 AM CDT 8:25 PM CDT
Astronomical Twilight 4:46 AM CDT 8:57 PM CDT
Moon 3:41 PM CDT (8/16) 1:23 AM CDT (8/16)
Length of Visible Light 14h 06m
Length of Day
13h 15m
Waxing Gibbous, 75% of the Moon is Illuminated
Aug 16
Waxing Gibbous
Aug 20
Full
Aug 28
Last Quarter
Sep 5
New
Sep 12
First Quarter

Hourly Weather History & Observations

Time (CDT) Temp. Heat Index Dew Point Humidity Pressure Visibility Wind Dir Wind Speed Gust Speed Precip Events Conditions
12:53 AM 73.9 °F - 71.1 °F 91% 29.98 in 10.0 mi Calm Calm - N/A   Overcast
1:02 AM 73.4 °F - 71.6 °F 94% 29.99 in 10.0 mi Calm Calm - N/A   Overcast
1:53 AM 73.9 °F - 70.0 °F 87% 29.97 in 10.0 mi NE 4.6 mph - N/A   Overcast
2:38 AM 73.4 °F - 69.8 °F 88% 29.98 in 4.0 mi NE 3.5 mph - N/A   Overcast
2:53 AM 73.0 °F - 70.0 °F 90% 29.97 in 4.0 mi NNE 4.6 mph - N/A   Overcast
3:53 AM 73.0 °F - 70.0 °F 90% 29.97 in 9.0 mi NNE 4.6 mph - N/A   Overcast
4:53 AM 73.0 °F - 70.0 °F 90% 29.96 in 9.0 mi NNE 3.5 mph - N/A   Overcast
5:53 AM 72.0 °F - 70.0 °F 93% 29.99 in 4.0 mi NNE 4.6 mph - N/A   Overcast
6:08 AM 71.6 °F - 69.8 °F 94% 30.00 in 2.5 mi NNE 5.8 mph - N/A   Overcast
6:31 AM 71.6 °F - 69.8 °F 94% 30.01 in 1.5 mi NNE 4.6 mph - N/A   Overcast
6:46 AM 71.6 °F - 69.8 °F 94% 30.01 in 2.0 mi NE 3.5 mph - N/A   Overcast
6:53 AM 71.1 °F - 69.1 °F 93% 30.00 in 2.0 mi NNE 4.6 mph - N/A   Overcast
7:05 AM 71.6 °F - 69.8 °F 94% 30.01 in 4.0 mi NE 4.6 mph - N/A   Overcast
7:53 AM 72.0 °F - 69.1 °F 91% 30.01 in 4.0 mi NE 4.6 mph - N/A   Overcast
8:53 AM 73.0 °F - 69.1 °F 87% 30.01 in 8.0 mi ENE 4.6 mph - N/A   Overcast
9:07 AM 73.4 °F - 69.8 °F 88% 30.02 in 10.0 mi NE 3.5 mph - N/A   Overcast
9:53 AM 75.0 °F - 69.1 °F 82% 30.02 in 10.0 mi NE 5.8 mph - N/A   Overcast
10:13 AM 75.2 °F - 69.8 °F 83% 30.04 in 10.0 mi Calm Calm - N/A   Overcast
10:53 AM 75.9 °F - 69.1 °F 79% 30.04 in 10.0 mi NE 3.5 mph - N/A   Overcast
11:53 AM 79.0 °F - 69.1 °F 72% 30.03 in 10.0 mi NE 6.9 mph - N/A   Overcast
12:53 PM 81.0 °F 84.4 °F 70.0 °F 69% 30.01 in 10.0 mi NNE 8.1 mph - N/A   Overcast
1:53 PM 82.0 °F 85.9 °F 70.0 °F 67% 30.00 in 10.0 mi Variable 5.8 mph - N/A   Overcast
2:53 PM 81.0 °F 84.4 °F 70.0 °F 69% 29.99 in 10.0 mi NE 6.9 mph - N/A   Overcast
3:40 PM 82.4 °F 86.3 °F 69.8 °F 66% 29.99 in 10.0 mi NNE 5.8 mph - N/A   Mostly Cloudy
3:53 PM 82.9 °F 87.0 °F 70.0 °F 65% 29.99 in 10.0 mi Variable 5.8 mph - N/A   Scattered Clouds
4:53 PM 82.9 °F 87.0 °F 70.0 °F 65% 29.98 in 10.0 mi NNE 6.9 mph - N/A   Clear
5:53 PM 82.0 °F 85.9 °F 70.0 °F 67% 29.99 in 10.0 mi Calm Calm - N/A   Clear
6:53 PM 80.1 °F 83.6 °F 71.1 °F 74% 29.99 in 10.0 mi ENE 3.5 mph - N/A   Scattered Clouds
7:53 PM 77.0 °F - 71.1 °F 82% 30.01 in 10.0 mi NNE 4.6 mph - N/A   Mostly Cloudy
8:17 PM 75.2 °F - 71.6 °F 89% 30.03 in 10.0 mi NNE 4.6 mph - N/A   Scattered Clouds
8:53 PM 75.9 °F - 71.1 °F 85% 30.03 in 10.0 mi NE 3.5 mph - N/A   Scattered Clouds
9:28 PM 75.2 °F - 71.6 °F 89% 30.05 in 10.0 mi NE 4.6 mph - N/A   Mostly Cloudy
9:51 PM 75.2 °F - 69.8 °F 83% 30.05 in 10.0 mi ENE 5.8 mph - N/A   Scattered Clouds
9:53 PM 75.0 °F - 70.0 °F 84% 30.05 in 10.0 mi ENE 6.9 mph - N/A   Scattered Clouds
10:45 PM 73.4 °F - 69.8 °F 88% 30.05 in 10.0 mi NE 4.6 mph - N/A   Mostly Cloudy
10:53 PM 73.0 °F - 70.0 °F 90% 30.04 in 10.0 mi NE 4.6 mph - N/A   Mostly Cloudy
11:04 PM 73.4 °F - 69.8 °F 88% 30.05 in 10.0 mi NE 4.6 mph - N/A   Scattered Clouds
11:16 PM 73.4 °F - 69.8 °F 88% 30.05 in 10.0 mi ENE 4.6 mph - N/A   Mostly Cloudy
11:41 PM 73.4 °F - 69.8 °F 88% 30.05 in 10.0 mi ENE 3.5 mph - N/A   Mostly Cloudy
11:53 PM 73.0 °F - 69.1 °F 87% 30.04 in 10.0 mi ENE 4.6 mph - N/A   Mostly Cloudy